Regional Weather Roundup
Issued by NWS San Diego, CA

Home | Current Version | Previous Version | Text Only | Print | Product List | Glossary On
Versions: 1 2 3 4 5 6 7 8 9 10 11 12 13 14 15 16 17 18 19 20 21 22 23 24 25 26 27 28 29 30 31 32 33 34 35 36 37 38 39 40 41 42 43 44 45 46 47 48 49 50
000
ASUS46 KSGX 230210
RWRSGX

SAN DIEGO HOURLY WEATHER ROUNDUP
NATIONAL WEATHER SERVICE SAN DIEGO CA
700 PM PDT WED OCT 22 2014

NOTE: "FAIR" INDICATES FEW OR NO CLOUDS BELOW 12,000 FEET WITH NO
SIGNIFICANT WEATHER AND/OR OBSTRUCTIONS TO VISIBILITY.

CAZ042-043-060-061-PZZ750-775-230300-

GREATER SAN DIEGO AREA

CITY           SKY/WX    TMP DP  RH WIND       PRES   REMARKS
LINDBERGH FLD  MOCLDY    71  63  75 NW3       29.92R
POINT LOMA       N/A     66  62  88 NW13        N/A
NATIONAL CITY    N/A     72  65  77 CALM      29.92R
CHULA VISTA      N/A     70  65  85 CALM      29.85R
IMPERIAL BEACH PTCLDY    68  65  90 CALM      29.92R
BROWN FIELD    CLEAR     67  62  84 CALM      29.93R
MIRAMAR MCAS   PTCLDY    68  59  73 NW7       29.92R
MONTGOMERY FLD CLEAR     72  58  61 NW5       29.92R

$$

NORTH SAN DIEGO COUNTY

CITY           SKY/WX    TMP DP  RH WIND       PRES   REMARKS
CAMP PENDLETON PTCLDY    69  61  75 SE3       29.91R
OCEANSIDE AP   CLEAR     68  63  84 W3        29.90R
OCEANSIDE HBR    N/A     70  66  87 W2        29.94R
VISTA            N/A     70  61  72 CALM      29.90
CARLSBAD       CLEAR     69  62  78 CALM      29.91R
DEL MAR          N/A     67  63  87 CALM      29.94R
LA JOLLA SCRIP   N/A     67  64  88 CALM      29.89R
FALLBROOK        N/A     70  64  80 CALM      29.90R
ESCONDIDO        N/A     75  58  55 CALM      29.94R
SAN MARCOS       N/A     73  61  66 CALM      29.90R
POWAY            N/A     71  60  68 CALM      29.93R

$$

EAST SAN DIEGO COUNTY

CITY           SKY/WX    TMP DP  RH WIND       PRES   REMARKS
RAMONA         CLEAR     67  50  54 W5        29.95R
SANTEE LAKES     N/A     73  59  62 CALM      29.92R
LA MESA          N/A     74  62  68 W3        29.86R
JAMUL            N/A     70  57  62 CALM      29.92R
DESCANSO N       N/A     64  43  46 CALM      29.85R
MT. LAGUNA OBS   N/A     61  25  25 CALM      29.75R
CAMPO            N/A     64  38  38 NE3       29.98R

$$

ORANGE COUNTY AND THE LOS ANGELES BASIN

CITY           SKY/WX    TMP DP  RH WIND       PRES   REMARKS
JOHN WAYNE AP  PTCLDY    74  63  68 SW5       29.91R
LAKE FOREST FR   N/A     72  56  56 CALM      29.82R
SANTA ANA        N/A     73  63  71 CALM      29.86R
HUNTINGTON BCH   N/A     69  66  89 W2        29.93R
LOS ALAMITOS   PTCLDY    71  60  68 NW7       29.91R
FULLERTON      CLEAR     76  58  53 W3        29.90R
LONG BEACH     CLEAR     72  62  71 NW8       29.91R
L.A. AP        PTCLDY    69  65  86 W8        29.92R
L.A. DOWNTOWN  CLEAR     71  60  68 W3        29.91R

$$

THE INLAND EMPIRE

CITY           SKY/WX    TMP DP  RH WIND       PRES   REMARKS
CORONA         PTCLDY    75  52  44 W8        29.91R
CHINO          CLEAR     72  54  53 W6        29.92R
ONTARIO        MOCLDY    77  58  51 SW7       29.92R
SAN BERNARDINO MOCLDY    77  48  36 SW6       29.93R
RIVERSIDE AP   PTCLDY    78  49  35 W3        29.92R
RIV CYN CREST    N/A     78  61  54 CALM      29.90R
MORENO VALLEY    N/A     77  55  47 CALM      29.12R
MARCH ARB      PTCLDY    73  51  46 W3        29.95R
PERRIS           N/A     79  52  39 CALM      29.92R
MENIFEE          N/A     79  51  37 S2        29.97R
HEMET EAST       N/A     77  31  19 CALM      29.92R
FRENCH VALLEY  FAIR      73  39  29 SE3       29.95R
TEMECULA         N/A     76  42  29 S2        29.88R

$$

SAN BERNARDINO AND RIVERSIDE COUNTY MOUNTAINS

CITY           SKY/WX    TMP DP  RH WIND       PRES   REMARKS
BIG BEAR AP    PTCLDY    52  23  32 CALM      30.25R
PINE COVE        N/A     59  20  22 CALM      29.87R

$$

SOUTHERN DESERT INCLUDING THE COACHELLA VALLEY

CITY           SKY/WX    TMP DP  RH WIND       PRES   REMARKS
PALM SPRINGS   PTCLDY    86  36  16 CALM      29.91R
THOUSAND PALMS   N/A     82  40  21 CALM      29.85R
PALM DESERT      N/A     83  46  26 CALM        N/A
THERMAL        CLEAR     74  47  38 CALM      29.85R
BLYTHE         PTCLDY    85  46  25 E5        29.88R
IMPERIAL AP    PTCLDY    82  51  34 NW3       29.85R
EL CENTRO NAS  PTCLDY    84  48  28 W3        29.85R
YUMA AZ        PTCLDY    88  47  24 W3        29.86R
MEXICALI       CLEAR     84  45  24 S6        29.86

$$

UPPER DESERT

CITY           SKY/WX    TMP DP  RH WIND       PRES   REMARKS
VICTORVILLE AP PTCLDY    72  23  16 N3        30.04R
HESPERIA         N/A     68  36  30 CALM      30.09R
APPLE VALLEY     N/A     74  35  24 CALM      30.09R
PALMDALE       PTCLDY    71  30  21 W3        30.02R
LANCASTER      PTCLDY    72  30  21 CALM      30.01R
EDWARDS AFB    MOCLDY    73  28  19 W2        29.99R
DAGGETT        CLEAR     75  27  17 CALM      29.98R
29 PALMS N     PTCLDY    74  35  24 SW5       30.05R
NEEDLES        CLEAR     83  42  23 W3        29.92R

$$

REGIONAL REPORTS

CITY           SKY/WX    TMP DP  RH WIND       PRES   REMARKS
SANTA BARBARA  PTCLDY    68  61  78 SE5       29.90R
SANDBERG       CLEAR     69  25  19 E8        30.12R
MT. WILSON       N/A     64  27  24 MISG        N/A
LAS VEGAS NV   PTCLDY    79  27  14 SW3       29.97R
PHOENIX AZ     PTCLDY    84  51  31 SW3       29.90R
TIJUANA        PTCLDY    68  59  73 W7        29.94R

$$

OFFSHORE ISLANDS

CITY           SKY/WX    TMP DP  RH WIND       PRES   REMARKS
CATALINA ARPT  CLEAR     69  44  40 NW5       29.97R
SAN NICOLAS IS CLEAR    N/A N/A N/A W13       29.93R

$$

MARINE AND OFFSHORE BUOY REPORTS

STATION/POSITION SKY/WX   TEMP    WIND        PRES    SWELL
                          AIR SEA DIR/SP/G            HT/PER/DIR
                          (F)     (DEG/KT/KT) (MB)    (FT/S/D)
TANNER BANKS               67 68  330/ 12/ 14 1013.3R   8/320/14
S CLEMENTE BASIN           69 71  320/  6/  6 1012.7R   7/290/13
SAN NICOLAS IS.               67                N/A     7/300/13
SO. S. ROSA ISLA           65 67  320/ 16/ 19 1012.7R   7/12
W. S. BARBARA CH           65 65  330/ 21/ 25 1012.1R   7/310/13
M. S. BARBARA CH           67 69  240/  6/  8 1012.4F
S. MONICA BASIN            69 71  270/  8/ 10 1012.6R   5/250/ 9
S PEDRO CHANNEL               72                N/A     3/270/11
DANA POINT                    70                N/A     3/270/12
CMP PENDLETON NS              71                N/A     2/230/11
OCEANSIDE OFFSHR              71                N/A     2/260/11
TORREY PINES OTR              72                N/A     3/280/13
LA JOLLA 1                 69 71  360/  2/  3 1013.0R
MISSION BAY BUOY              72                N/A     3/270/13
SAN DIEGO BAY                 75              1013.5R
POINT LOMA SOUTH              72                N/A     5/280/11

$$




USA.gov is the U.S. government's official web portal to all federal, state and local government web resources and services.